Regional Weather Roundup
Issued by NWS

Home | Current Version | Previous Version | Graphics & Text | Print | Product List | Glossary On
Versions: 1 2 3 4 5 6 7 8 9 10 11 12 13 14 15 16 17 18 19 20 21 22 23 24 25 26 27 28 29 30 31 32 33 34 35 36 37 38 39 40 41 42 43 44 45 46 47 48 49 50
000
ASUS43 KMPX 290010
RWRMN
WEATHER ROUNDUP FOR MINNESOTA
NATIONAL WEATHER SERVICE TWIN CITIES/CHANHASSEN MN
700 PM CDT TUE JUL 28 2015


NOTE: "FAIR" INDICATES FEW OR NO CLOUDS BELOW 12,000 FEET WITH NO
SIGNIFICANT WEATHER AND/OR OBSTRUCTIONS TO VISIBILITY. N/A MEANS
CURRENT SKY AND/OR WEATHER CONDITIONS ARE NOT AVAILABLE.

MNZ060>063-068>070-290100-
   Twin Cities Metro

CITY           SKY/WX    TMP DP  RH WIND       PRES   REMARKS
TWIN CITIES    PTSUNNY   82  72  71 SW14G22   29.81F
6HR MIN TEMP:  78; 6HR MAX TEMP:  84;

ST PAUL        CLOUDY    82  72  71 SW14      29.81F
CRYSTAL        CLOUDY    83  72  69 SW13G22   29.80S
BLAINE         CLOUDY    82  73  74 SW13G21   29.80F
LAKEVILLE      CLOUDY    79  72  78 SW6       29.84S
EDEN PRAIRIE   CLOUDY    81  73  76 SW9       29.81S
6HR MIN TEMP:  78; 6HR MAX TEMP:  84;

SOUTH ST PAUL  CLOUDY    82  71  70 SW8       29.81S
LAKE ELMO      CLOUDY    81  73  78 S9        29.83S
$$
MNZ001>005-007-008-013>017-022>024-027-028-290100-
   Northwest Minnesota

CITY           SKY/WX    TMP DP  RH WIND       PRES   REMARKS
BEMIDJI        MOSUNNY   74  57  55 SW17G24   29.74R
HALLOCK        CLOUDY    72  55  56 SW17G23   29.55F
ROSEAU         PTSUNNY   73  57  56 SW22G30   29.61F
WARROAD        MOSUNNY   73  59  60 SW20G29   29.61F
THIEF RVR FALL CLOUDY    72  54  53 SW14G23   29.66F
CROOKSTON      CLOUDY    73  55  53 SW23G31   29.66F
FOSSTON        MOSUNNY   72  57  60 SW15G30   29.72F
DETROIT LAKES  MOSUNNY   75  52  43 W13G25    29.78F
MOORHEAD       MOSUNNY   75  52  43 SW21G28   29.75S
PARK RAPIDS    SUNNY     76  56  49 W16G28    29.78R
MAHNOMEN       FAIR      74  55  50 SW15G26   29.73F
$$
MNZ006-009>011-018-025>026-290100-
   North Central Minnesota

CITY           SKY/WX    TMP DP  RH WIND       PRES   REMARKS
BAUDETTE       MOSUNNY   74  55  51 SW23G36   29.65R
FLAG ISLAND    PTSUNNY   73  57  56 SW26G38   29.57F
INTL FALLS     PTSUNNY   80  61  52 W15G24    29.65R
6HR MIN TEMP:  73; 6HR MAX TEMP:  82; 6HR PCP: TRACE;

WASKISH        MOSUNNY   75  61  60 SW17G26   29.69S
BIG FORK       SUNNY     79  61  53 SW13G25   29.71
LONGVILLE      SUNNY     77  55  47 SW15G25   29.77R
GRAND RAPIDS   MOSUNNY   79  66  65 S14G21    29.74S
CRANE LAKE     PTSUNNY   79  66  65 S5        29.69F
ORR            PTSUNNY   79  64  61 S9G20     29.68S
COOK           PTSUNNY   81  66  61 S12G17    29.72S
WALKER         MOCLDY    74  57  55 SW14G20   29.76R
$$
MNZ012-019>021-037-290100-
   Northeast Minnesota

CITY           SKY/WX    TMP DP  RH WIND       PRES   REMARKS
DULUTH         PTSUNNY   80  68  66 S12       29.78S
6HR MIN TEMP:  79; 6HR MAX TEMP:  85;

ELY            PTSUNNY   81  63  54 S10G16    29.73F
HIBBING        CLOUDY    78  67  68 S9        29.74S
EVELETH        PTSUNNY   77  63  61 S13       29.76R
DULUTH HARBOR  CLOUDY    82  72  69 S12       29.75S
TWO HARBORS    PTSUNNY   82  72  69 S9        29.75S
SILVER BAY     SUNNY     81  66  61 S8        29.75S
GRAND MARAIS     N/A     65  59  81 NE5       29.76F
G MARAIS ARPRT MOSUNNY   73  64  73 SE6       29.82F
$$
MNZ029>031-032-039>041-046>048-054>057-064-290100-
   West Central Minnesota

CITY           SKY/WX    TMP DP  RH WIND       PRES   REMARKS
FERGUS FALLS   SUNNY     77  54  44 W24G30    29.79S
WHEATON        SUNNY     75  54  46 W14G22    29.84R
MORRIS         SUNNY     77  57  50 W14       29.84R
ALEXANDRIA     SUNNY     76  56  49 W17G24    29.86R
ELBOW LAKE     FAIR      75  56  50 W16G24    29.82S
WADENA         MOSUNNY   75  57  53 SW14G24   29.80R
GLENWOOD       SUNNY     75  57  53 W15G25    29.86R
APPLETON       SUNNY     79  54  41 W15G21    29.85R
BENSON         SUNNY     79  55  44 NW10      29.86R
ORTONVILLE     SUNNY     79  55  44 W9G18     29.85S
MADISON        SUNNY     79  55  44 W12       29.87R
WILLMAR        FAIR      79  61  53 W13       29.88R
$$
MNZ033>034-036-042>043-049>051-058-059-290100-
   Central Minnesota

CITY           SKY/WX    TMP DP  RH WIND       PRES   REMARKS
ST CLOUD       SUNNY     81  62  52 W16       29.81R
6HR MIN TEMP:  78; 6HR MAX TEMP:  83;

SAUK CENTRE    FAIR      75  60  58 W15       29.85R
PAYNESVILLE    SUNNY     75  58  54 SW14G22   29.85R
AITKIN         MOSUNNY   81  66  61 S13       29.76S
PINE RIVER     SUNNY     75  59  57 SW13G23   29.82R
BRAINERD       MOSUNNY   79  58  48 W17       29.79R
STAPLES        SUNNY     75  55  50 SW14G24   29.81R
LONG PRAIRIE   FAIR      75  57  53 SW15G21   29.84R
LITTLE FALLS   SUNNY     77  57  50 SW8G18    29.82R
LITCHFIELD     SUNNY     79  63  57 W12G18    29.86R
BUFFALO        MOSUNNY   81  67  61 W9G16     29.83S
MAPLE LAKE     SUNNY     82  68  61 W10G18    29.83S
$$
MNZ037-044-045-052-053-290100-
   East Central Minnesota

CITY           SKY/WX    TMP DP  RH WIND       PRES   REMARKS
PRINCETON      PTSUNNY   81  73  78 SW5       29.80S
MORA           LGT RAIN  75  68  78 SW7       29.81S
CAMBRIDGE      PTSUNNY   82  70  65 S5        29.78F
RUSH CITY      CLOUDY    79  71  76 S6        29.80F
MOOSE LAKE     CLOUDY    79  68  69 S10G17    29.76F
HINCKLEY       CLOUDY    79  72  78 S8        29.79F
CLOQUET        CLOUDY    79  66  65 S8        29.78S
MCGREGOR       CLOUDY    79  70  73 S9        29.78S
$$
MNZ071>073-080-081-089-090-097-098-290100-
   Southwest Minnesota

CITY           SKY/WX    TMP DP  RH WIND       PRES   REMARKS
MONTEVIDEO     SUNNY     79  61  53 NW9       29.89R
GRANITE FALLS  SUNNY     77  61  58 SW7       29.89S
CANBY          SUNNY     78  53  42 W12       29.90R
MARSHALL       SUNNY     79  57  47 W10G17    29.91S
REDWOOD FALLS  SUNNY     79  60  52 W12       29.87R
OLIVIA         SUNNY     73  59  60 W15       29.87R
PIPESTONE      SUNNY     75  55  50 NW12G17   29.94S
WINDOM         SUNNY     79  59  50 W10G21    29.91R
WORTHINGTON    SUNNY     77  59  53 W8        29.93S
JACKSON        SUNNY     79  61  53 W9        29.93R
TRACY          SUNNY     77  61  57 W6        29.91S
SLAYTON        SUNNY     76  57  51 W12       29.94S
$$
MNZ065>067-074>077-082>085-091>093-290100-
   South Central Minnesota

CITY           SKY/WX    TMP DP  RH WIND       PRES   REMARKS
MANKATO        CLOUDY    79  70  73 W14G20    29.86R
NEW ULM        SUNNY     79  63  57 W10       29.87R
ST JAMES       SUNNY     81  66  61 W10       29.89R
FAIRMONT       CLOUDY    77  66  69 W10       29.89R
GLENCOE        SUNNY     81  68  64 W7G20     29.84R
FARIBAULT      CLOUDY    79  73  83 SW6       29.86R
OWATONNA       MOSUNNY   79  72  78 SW10      29.87S
WASECA         CLOUDY    77  72  83 W12       29.88S
ALBERT LEA     MOSUNNY   79  72  78 SW7       29.91R
$$
MNZ078>079-086>088-094>096-290100-
   Southeast Minnesota

CITY           SKY/WX    TMP DP  RH WIND       PRES   REMARKS
ROCHESTER      CLOUDY    77  71  82 SW12      29.90R
6HR MIN TEMP:  76; 6HR MAX TEMP:  82;

RED WING       CLOUDY    82  72  69 SW7       29.82S
STANTON        LGT RAIN  79  72  78 SW7       29.83S
DODGE CENTER   CLOUDY    77  72  83 SW12      29.89R
WINONA         CLOUDY    81  70  69 SW7       29.86R
AUSTIN         CLOUDY    79  72  78 SW9       29.91R
PRESTON        PTSUNNY   78  70  74 SW7       29.91R
$$
ABBREVIATIONS USED IN REMARKS
   TC - TEMPERATURES IN CELSIUS
  WCI - WIND CHILL INDEX
   HX - HEAT INDEX
  VSB - VISIBILITY
$$



USA.gov is the U.S. government's official web portal to all federal, state and local government web resources and services.